Wetbulb
56.91 57.04 56.88 57.23 57.95 58.05 58.02 57.78 57.90 57.64 57.54 57.74 57.97 58.08 58.32 58.47 58.11 55.10 51.99 56.11 56.07 63.33 62.63 55.56 55.43 54.30 51.54 47.90 48.04 46.58 40.60 39.87 42.10 43.90 43.55 46.57 46.27 49.88 50.64 48.96 50.55 50.96 51.00 52.94 55.55
56.64 56.69 56.60 56.72 57.59 57.96 57.94 58.01 58.00 58.04 58.19 58.02 58.18 58.13 58.01 58.41 53.66 52.43 60.17 62.16 62.18 64.48 54.13 54.27 52.56 52.52 45.91 45.54 46.77 42.88 38.28 41.79 45.89 43.41 42.52 44.21 45.10 46.73 47.85 47.29 47.84 49.29 51.59 53.13 53.64
56.05 56.19 56.22 56.27 56.76 57.54 57.69 57.90 58.05 58.07 58.45 58.44 58.19 57.90 57.66 57.24 52.34 51.62 63.11 63.32 63.08 62.43 55.66 54.97 54.16 51.04 44.28 42.82 44.33 42.32 40.61 44.21 46.69 45.88 46.88 45.19 45.47 47.00 45.83 44.22 46.62 46.95 48.94 50.45 50.90
55.33 55.74 55.90 56.02 56.62 57.31 57.75 57.77 58.04 58.03 58.05 58.24 57.91 57.72 58.01 53.97 42.45 51.51 64.79 64.97 65.48 59.86 55.09 53.68 50.23 43.31 40.99 41.05 43.59 40.29 45.82 46.80 47.42 45.96 45.49 44.73 46.22 45.33 45.86 46.63 49.27 48.79 49.14 49.36 48.83
55.45 55.70 55.98 56.26 56.66 57.10 57.65 57.73 57.63 57.14 57.58 57.64 57.74 57.93 55.06 49.04 49.64 54.23 66.07 65.16 59.82 57.22 53.90 51.57 45.72 42.00 40.47 41.47 44.16 40.04 44.28 46.56 46.64 44.36 43.47 47.01 44.85 44.26 44.62 48.50 49.55 50.22 50.49 49.09 47.80
55.34 55.44 55.69 56.15 56.39 56.73 57.35 57.36 56.72 56.46 56.78 57.25 57.58 57.97 52.30 43.82 53.25 54.34 56.05 53.88 53.97 51.12 48.23 47.33 44.42 44.92 42.06 42.09 41.29 44.19 44.15 44.87 45.07 45.25 43.15 43.73 45.36 46.38 47.19 49.74 49.95 49.89 49.12 48.53 48.68
55.03 55.05 55.20 55.68 56.17 56.51 56.97 56.44 55.79 56.77 57.28 57.51 58.19 57.36 51.97 49.65 53.81 53.89 52.76 51.05 51.97 52.03 49.33 49.42 48.11 46.07 43.46 43.05 44.96 45.29 42.24 43.61 45.00 44.03 44.24 45.07 43.03 43.95 47.87 48.52 48.12 49.10 48.68 50.18 50.00
54.70 54.64 54.72 55.28 55.84 56.29 56.45 56.08 55.78 56.39 58.21 58.32 58.94 54.09 48.64 51.90 51.88 52.37 51.67 51.16 52.58 52.58 51.62 51.21 49.53 44.98 42.23 44.72 45.47 41.94 40.81 35.75 42.75 44.53 44.88 44.81 38.14 45.31 47.98 45.82 47.69 48.82 49.10 49.82 49.62
54.15 54.17 54.38 54.91 55.54 55.96 55.82 55.17 56.12 57.28 59.17 58.60 53.78 50.79 48.47 56.23 51.95 52.39 52.50 51.64 51.45 51.75 51.36 53.64 48.38 44.75 45.28 39.90 37.37 37.99 33.46 34.95 39.48 42.45 43.68 41.82 39.59 45.21 47.49 45.97 45.67 46.20 47.19 48.96 49.05
53.81 53.72 54.14 54.54 55.09 55.25 54.22 54.78 56.48 55.43 56.67 57.40 56.53 47.20 49.86 48.32 50.52 54.00 53.11 53.02 50.63 49.69 48.64 47.17 43.84 40.80 39.10 37.30 31.45 33.54 33.81 35.45 36.88 41.75 41.56 39.35 40.15 43.44 46.50 46.79 46.50 46.38 47.27 48.13 48.55
53.21 53.44 53.65 54.18 54.83 54.44 50.89 50.89 48.81 47.40 48.24 47.07 48.13 48.89 47.39 49.51 52.09 50.91 53.18 51.54 50.30 46.88 40.28 43.13 38.63 36.40 39.28 40.38 41.30 39.21 37.17 36.16 39.29 43.34 42.00 40.75 41.20 43.67 45.68 45.69 45.52 46.05 46.29 46.48 49.30
52.76 52.92 53.60 53.96 54.48 53.90 48.82 48.27 50.85 49.65 44.20 50.90 52.53 48.21 50.78 49.21 47.69 50.46 52.52 46.40 45.64 40.97 42.99 39.97 37.04 42.71 44.73 43.24 41.71 40.28 37.29 37.27 40.78 44.38 42.48 40.88 41.43 43.70 44.84 45.68 45.61 46.78 47.38 47.24 47.56
52.49 52.85 53.20 53.89 53.73 50.91 48.84 52.23 52.84 50.64 43.42 49.68 49.04 47.94 47.27 48.04 47.65 48.09 49.11 46.66 44.10 41.75 41.80 38.42 42.31 46.80 45.15 42.41 41.93 39.34 37.26 37.86 38.28 42.20 41.62 40.63 37.60 41.14 45.66 46.27 48.41 47.79 47.95 48.24 48.33
52.02 52.44 53.12 52.85 51.60 50.02 50.34 52.21 52.29 52.00 40.25 45.21 44.51 47.53 48.76 48.00 46.81 52.00 50.90 47.79 45.24 42.42 43.42 40.53 45.86 45.15 41.86 41.95 41.45 35.78 42.62 42.40 41.27 37.53 31.61 40.36 29.07 37.58 41.89 45.05 47.48 46.95 46.94 47.53 48.57
51.79 52.64 53.07 52.38 48.03 49.61 51.54 51.31 52.70 51.27 31.32 45.99 45.40 50.17 48.31 45.18 47.06 48.73 51.35 49.17 43.99 44.46 43.48 41.10 43.51 42.82 40.86 42.66 43.95 39.84 43.75 41.16 40.41 35.78 33.09 35.49 30.50 35.41 42.67 42.63 43.21 46.14 47.66 48.18 48.68
51.56 52.51 51.98 51.68 49.40 52.50 53.53 50.51 52.45 41.75 33.56 42.16 46.72 45.07 43.89 45.36 46.29 47.17 48.65 50.83 50.17 45.90 45.01 43.73 47.70 45.76 44.00 46.02 45.55 45.63 40.52 38.42 35.94 33.11 27.50 34.47 33.39 32.41 38.14 41.92 43.73 46.45 48.12 48.94 49.54
51.46 51.81 50.24 52.86 49.28 52.57 50.33 48.93 39.83 34.73 46.06 42.07 42.12 44.06 42.99 43.03 44.58 45.81 44.42 43.89 40.03 35.87 35.46 41.14 43.29 46.18 47.52 41.78 43.28 40.76 33.53 25.76 25.88 25.53 26.55 36.09 33.27 34.04 42.39 45.19 46.01 45.93 46.72 47.84 47.40
50.72 50.49 50.92 53.46 51.30 51.61 49.00 44.09 33.77 42.53 41.61 45.64 44.30 43.74 42.23 43.14 42.97 44.53 42.78 41.17 44.09 41.36 35.28 33.27 34.11 42.52 45.65 42.18 38.58 35.92 35.06 27.00 23.10 24.03 27.95 36.44 30.29 36.63 45.81 47.65 47.85 48.10 46.67 46.95 46.74
49.68 51.21 52.23 53.88 55.10 50.16 45.62 36.33 35.48 41.45 44.87 44.00 43.87 41.06 41.67 44.43 43.34 43.10 40.47 41.07 43.12 41.90 33.75 32.92 35.77 44.02 45.05 45.63 42.45 37.10 32.76 37.96 32.02 31.20 27.22 30.60 35.00 42.48 44.99 44.62 46.08 46.34 46.41 46.40 45.62
45.56 50.28 52.45 52.79 52.11 50.47 43.83 40.57 41.07 47.12 47.35 46.10 39.15 42.12 37.73 41.03 40.98 39.91 40.39 44.56 43.86 44.71 41.61 37.84 30.50 40.66 44.29 45.00 43.74 39.39 41.18 30.93 30.28 23.38 23.11 29.27 31.40 32.34 40.09 41.47 44.24 43.87 43.86 45.89 46.15
50.44 49.11 50.24 52.75 53.43 47.42 40.09 40.02 44.80 48.03 47.79 43.93 41.19 39.95 41.09 40.26 40.80 39.49 41.11 44.55 45.98 44.91 42.44 38.44 33.95 35.52 40.08 37.08 35.52 36.29 33.66 33.80 33.23 31.48 25.73 24.86 28.84 38.11 39.25 41.82 41.61 43.29 45.00 45.09 44.65
45.02 42.13 49.82 49.94 42.84 40.48 38.68 43.17 46.05 47.75 48.41 46.73 45.01 43.72 41.44 41.78 39.83 40.23 40.66 44.29 47.60 45.21 38.94 39.47 34.14 30.13 35.04 42.06 43.56 40.57 37.18 34.54 25.77 27.78 27.56 27.89 30.35 44.44 43.96 42.89 41.29 41.99 44.40 43.77 42.60
41.58 44.99 52.08 49.23 36.17 36.30 41.79 45.33 47.43 46.90 46.39 45.30 43.05 44.58 43.67 39.45 33.88 41.04 42.80 47.94 47.08 44.41 39.88 39.25 31.79 24.40 28.81 35.10 39.60 37.56 38.70 37.36 34.48 31.71 25.40 24.79 29.79 42.72 43.17 43.60 44.52 42.17 42.84 42.36 43.13
43.65 38.98 41.84 42.93 42.09 38.86 38.92 41.21 42.41 48.56 45.53 46.62 44.78 44.51 42.04 40.38 40.93 38.57 41.18 46.70 47.87 46.14 51.64 43.77 32.74 31.69 29.70 32.04 35.31 34.38 37.57 38.69 35.91 20.17 30.24 31.64 33.59 38.24 40.02 40.48 40.42 40.18 40.42 40.91 42.23
41.00 38.12 39.91 35.05 38.63 40.01 39.35 41.60 42.01 40.77 44.30 43.72 41.11 42.42 39.63 30.32 36.67 37.21 41.27 42.12 44.80 47.24 43.24 37.51 30.24 33.47 35.98 37.80 37.73 36.80 37.14 37.79 35.29 35.75 28.49 34.78 34.96 38.32 39.01 38.84 39.69 40.78 42.31 41.93 42.53
37.60 36.12 38.50 37.23 40.42 40.20 38.92 38.06 40.26 41.95 40.96 39.74 38.07 41.65 39.68 33.52 35.42 34.51 38.15 37.13 37.85 41.13 38.64 37.81 33.46 34.90 34.29 38.41 38.62 37.11 39.69 39.62 39.01 38.81 37.59 37.33 35.55 41.47 42.08 42.84 41.81 42.17 41.64 41.44 41.47
41.79 41.38 39.28 38.05 38.40 36.34 36.60 38.95 40.43 40.72 42.06 43.04 40.94 38.00 38.03 39.98 42.06 41.75 41.02 40.54 40.76 38.54 36.94 34.39 30.64 25.00 28.79 35.29 34.61 29.60 35.00 38.05 38.90 40.01 38.19 33.90 37.82 40.12 40.49 40.98 40.41 40.31 40.62 40.80 41.39
MSLP
1016.72 1016.36 1016.00 1015.60 1015.23 1014.93 1014.70 1014.57 1014.42 1014.31 1014.25 1014.14 1014.03 1013.89 1013.70 1013.37 1012.78 1012.99 1012.20 1010.82 1010.74 1010.71 1010.77 1010.50 1010.14 1010.12 1010.49 1010.29 1009.76 1009.84 1010.86 1010.71 1009.81 1008.90 1008.61 1007.69 1007.27 1006.49 1006.16 1005.99 1005.58 1005.65 1005.95 1005.63 1005.41
1016.80 1016.36 1015.92 1015.54 1015.16 1014.78 1014.62 1014.36 1014.18 1014.12 1014.04 1013.95 1013.85 1013.68 1013.49 1013.28 1012.92 1012.10 1010.50 1010.33 1010.55 1010.67 1010.57 1010.53 1010.34 1010.36 1010.39 1010.05 1009.89 1010.18 1010.53 1009.96 1008.96 1008.50 1008.30 1007.90 1007.57 1007.28 1006.96 1006.62 1006.35 1005.96 1005.84 1006.06 1006.00
1016.94 1016.50 1016.02 1015.49 1014.96 1014.64 1014.38 1014.18 1014.01 1013.93 1013.94 1013.78 1013.62 1013.42 1013.30 1013.23 1012.70 1010.92 1010.06 1010.19 1010.41 1010.61 1010.78 1010.79 1010.51 1010.62 1010.50 1010.04 1009.81 1009.68 1009.67 1009.15 1008.47 1008.13 1007.80 1007.65 1007.53 1007.32 1007.35 1007.38 1007.04 1006.91 1006.61 1006.38 1006.34
1017.08 1016.57 1016.02 1015.51 1014.96 1014.42 1014.14 1013.90 1013.71 1013.65 1013.67 1013.65 1013.44 1013.31 1013.19 1013.16 1012.07 1010.09 1009.85 1010.14 1010.41 1010.53 1010.71 1010.55 1010.38 1010.24 1010.17 1010.08 1009.52 1009.57 1008.91 1008.53 1008.18 1007.91 1007.71 1007.61 1007.48 1007.40 1007.27 1007.31 1006.88 1006.79 1006.64 1006.53 1006.55
1017.01 1016.55 1016.01 1015.36 1014.88 1014.47 1014.03 1013.66 1013.45 1013.38 1013.33 1013.32 1013.27 1013.19 1013.14 1012.39 1010.78 1009.43 1009.55 1009.71 1010.11 1010.40 1010.30 1010.16 1010.25 1010.16 1010.17 1009.94 1009.48 1009.23 1008.71 1008.38 1008.03 1007.75 1007.83 1007.59 1007.61 1007.47 1007.29 1006.89 1006.73 1006.68 1006.61 1006.51 1006.42
1016.60 1016.33 1015.82 1015.31 1014.70 1014.22 1013.98 1013.61 1013.30 1013.12 1013.15 1013.15 1013.08 1013.04 1012.58 1011.27 1009.42 1009.14 1009.26 1009.59 1009.60 1009.94 1009.72 1009.79 1010.01 1009.60 1009.99 1009.97 1009.64 1009.29 1008.96 1008.47 1007.97 1007.70 1007.75 1007.76 1007.58 1007.45 1007.07 1006.66 1006.74 1006.58 1006.63 1006.52 1006.44
1016.40 1015.99 1015.66 1015.03 1014.53 1014.04 1013.63 1013.42 1013.17 1013.04 1013.00 1012.98 1012.92 1012.80 1012.04 1010.19 1009.21 1009.12 1009.49 1009.36 1008.95 1009.07 1009.29 1009.30 1009.29 1009.63 1010.00 1009.93 1009.48 1009.30 1009.17 1008.56 1007.84 1007.68 1007.53 1007.62 1007.76 1007.64 1006.86 1006.72 1006.88 1006.55 1006.56 1006.47 1006.36
1016.23 1015.76 1015.38 1014.82 1014.22 1013.72 1013.22 1012.89 1012.78 1012.75 1012.74 1012.77 1012.78 1012.51 1011.20 1009.16 1009.03 1009.16 1009.17 1009.14 1008.89 1008.81 1008.82 1008.86 1009.07 1009.63 1010.11 1009.95 1009.68 1009.76 1009.92 1010.05 1008.76 1008.36 1008.13 1008.10 1008.41 1007.54 1007.06 1007.33 1007.32 1006.79 1006.63 1006.45 1006.28
1016.36 1015.48 1015.12 1014.58 1013.91 1013.29 1012.71 1012.21 1011.98 1012.13 1012.41 1012.62 1012.68 1012.10 1010.74 1009.17 1009.08 1008.92 1008.81 1009.01 1008.96 1008.79 1008.79 1008.80 1009.26 1009.89 1010.06 1010.66 1011.20 1011.31 1011.22 1010.74 1009.77 1008.84 1008.77 1008.76 1008.76 1008.07 1007.40 1007.67 1007.69 1007.15 1006.76 1006.58 1006.31
1016.43 1015.59 1014.78 1014.36 1013.84 1013.08 1012.01 1011.46 1011.42 1011.64 1012.41 1012.44 1012.00 1011.84 1010.23 1009.43 1008.97 1008.85 1008.85 1008.83 1009.05 1009.16 1009.34 1009.35 1010.10 1010.78 1011.32 1011.61 1011.96 1011.74 1011.35 1010.90 1010.42 1009.31 1009.07 1009.09 1009.07 1008.83 1008.27 1007.87 1007.57 1007.41 1007.10 1006.85 1006.48
1016.60 1015.65 1014.82 1014.14 1013.66 1013.28 1011.98 1011.45 1011.95 1011.71 1011.56 1011.37 1010.94 1010.34 1009.52 1009.07 1008.81 1008.94 1008.82 1008.87 1009.18 1009.65 1010.23 1010.22 1011.05 1011.17 1011.00 1010.84 1010.78 1010.89 1011.07 1011.14 1010.48 1009.97 1009.71 1009.60 1009.22 1008.61 1007.80 1007.56 1007.35 1007.11 1006.83 1006.65 1006.03
1016.42 1015.71 1014.80 1014.10 1013.69 1013.46 1013.27 1012.69 1011.67 1011.38 1011.17 1010.14 1009.92 1009.46 1008.91 1008.74 1008.99 1009.08 1008.81 1009.45 1009.76 1010.15 1010.48 1010.96 1010.79 1010.24 1010.13 1010.11 1010.37 1010.56 1010.94 1011.26 1010.76 1010.51 1010.65 1010.37 1009.30 1008.52 1008.14 1007.68 1007.26 1006.99 1006.60 1006.64 1006.62
1016.22 1015.46 1014.65 1013.83 1013.36 1013.40 1013.00 1011.99 1010.70 1010.83 1011.17 1009.88 1009.24 1008.92 1008.73 1008.84 1008.89 1009.04 1009.08 1009.46 1009.91 1010.31 1010.45 1010.77 1010.02 1009.38 1009.62 1010.18 1010.49 1010.88 1011.42 1011.71 1011.84 1011.35 1011.19 1010.87 1009.92 1009.27 1008.25 1008.14 1007.40 1006.85 1007.43 1007.93 1007.80
1015.92 1015.18 1014.42 1013.66 1013.22 1013.33 1012.36 1010.77 1010.43 1010.56 1011.26 1009.99 1009.14 1008.55 1008.54 1008.69 1008.93 1008.83 1008.94 1009.56 1010.03 1010.41 1010.39 1010.36 1009.86 1009.56 1009.68 1010.28 1010.72 1011.30 1011.44 1011.85 1012.42 1013.07 1013.39 1012.87 1012.58 1010.93 1009.87 1009.61 1008.75 1008.39 1008.53 1008.92 1009.14
1015.58 1014.91 1014.23 1013.78 1013.78 1012.94 1011.71 1010.74 1010.39 1010.96 1010.91 1009.82 1008.85 1008.22 1008.47 1009.03 1009.06 1009.04 1008.99 1009.47 1010.09 1010.55 1011.04 1010.86 1010.17 1009.86 1009.95 1010.36 1010.66 1011.46 1011.67 1012.44 1012.88 1013.74 1014.26 1013.75 1013.77 1011.27 1010.51 1010.21 1009.76 1009.11 1009.11 1009.00 1009.14
1015.16 1014.58 1014.34 1013.79 1013.78 1012.16 1011.31 1010.78 1011.01 1011.81 1010.46 1009.52 1008.86 1008.74 1009.07 1009.01 1009.17 1009.13 1009.36 1009.67 1010.11 1010.77 1011.13 1010.97 1010.33 1010.22 1010.22 1010.46 1010.78 1011.56 1012.40 1012.96 1013.63 1014.45 1015.19 1014.52 1013.81 1011.93 1011.51 1010.79 1010.46 1009.82 1009.48 1009.47 1009.41
1014.71 1014.15 1014.14 1013.51 1012.69 1011.54 1011.36 1011.68 1012.30 1011.49 1010.11 1010.09 1009.54 1009.14 1009.14 1009.35 1009.54 1009.59 1009.85 1010.57 1011.32 1011.89 1012.72 1011.98 1011.18 1010.76 1010.76 1011.00 1011.43 1012.15 1013.89 1014.96 1015.50 1015.77 1015.43 1014.44 1013.71 1011.98 1011.30 1010.91 1010.65 1010.38 1010.20 1010.12 1010.22
1014.31 1013.65 1013.30 1012.55 1011.80 1012.12 1012.32 1012.91 1012.60 1011.76 1011.12 1010.49 1010.12 1009.74 1009.88 1009.85 1010.05 1010.17 1010.59 1011.56 1012.03 1012.67 1013.66 1013.73 1012.76 1011.98 1011.90 1011.70 1012.04 1012.79 1014.19 1015.80 1016.65 1016.87 1015.85 1014.87 1013.66 1011.65 1011.17 1010.78 1010.45 1010.39 1010.70 1010.81 1010.65
1014.27 1013.51 1013.23 1011.81 1011.55 1012.20 1013.27 1013.54 1013.21 1012.25 1011.82 1011.42 1010.69 1010.72 1010.91 1010.86 1011.06 1011.17 1011.57 1011.94 1012.62 1013.12 1013.89 1014.34 1013.81 1012.59 1012.54 1012.22 1012.32 1013.20 1014.07 1014.73 1016.23 1016.72 1016.39 1014.86 1013.14 1011.98 1011.38 1010.90 1010.82 1010.75 1010.66 1010.57 1010.50
1015.44 1014.50 1013.14 1011.36 1011.48 1012.61 1013.67 1013.79 1013.03 1012.33 1011.95 1011.88 1012.18 1012.28 1012.53 1012.52 1012.47 1012.44 1012.26 1012.39 1012.88 1013.31 1013.61 1014.72 1014.81 1013.82 1013.05 1012.70 1012.50 1013.03 1013.99 1015.24 1016.79 1017.46 1017.12 1015.31 1013.54 1012.06 1011.52 1010.80 1010.75 1010.99 1011.07 1010.75 1010.71
1015.56 1014.78 1012.14 1011.46 1011.91 1013.54 1014.58 1013.98 1013.10 1012.41 1012.03 1012.33 1012.74 1013.05 1013.35 1013.56 1013.39 1013.26 1012.94 1013.19 1013.16 1013.81 1014.04 1014.78 1015.55 1015.08 1014.43 1013.79 1013.45 1013.95 1014.65 1015.78 1016.94 1017.30 1017.03 1015.97 1013.44 1011.35 1011.16 1011.00 1011.03 1010.84 1010.85 1010.96 1011.08
1016.74 1015.59 1012.93 1012.26 1013.62 1014.87 1015.21 1014.39 1013.23 1012.66 1012.41 1012.65 1013.00 1013.66 1014.14 1014.26 1014.26 1014.14 1013.81 1013.61 1013.62 1013.92 1014.52 1015.18 1015.98 1016.12 1015.39 1013.54 1013.69 1014.16 1014.75 1015.89 1017.32 1017.35 1016.83 1015.81 1012.44 1011.23 1010.74 1010.81 1010.79 1010.80 1010.66 1010.78 1011.13
1018.64 1016.83 1013.61 1013.17 1015.74 1016.50 1015.57 1014.53 1013.48 1013.08 1013.12 1013.36 1013.83 1014.30 1014.62 1014.97 1015.23 1014.77 1014.38 1014.03 1014.26 1014.51 1014.94 1015.57 1016.60 1016.86 1016.05 1014.47 1014.13 1014.26 1014.97 1015.65 1016.43 1016.64 1016.11 1015.76 1012.27 1010.98 1010.61 1010.67 1010.59 1010.93 1011.39 1011.73 1011.74
1018.99 1018.43 1017.23 1016.89 1017.34 1017.28 1016.78 1015.62 1014.66 1013.85 1014.15 1014.19 1014.58 1014.81 1015.49 1015.91 1015.89 1015.75 1015.37 1014.73 1014.79 1015.02 1015.41 1015.83 1016.89 1017.41 1016.54 1015.68 1015.34 1014.95 1014.87 1015.09 1015.80 1016.16 1015.18 1013.63 1012.20 1011.57 1011.31 1010.99 1011.13 1011.67 1012.02 1012.14 1012.03
1019.96 1020.85 1020.45 1019.94 1018.71 1018.30 1017.49 1016.51 1015.76 1015.16 1015.04 1015.15 1015.47 1016.11 1016.67 1017.03 1017.05 1016.80 1016.64 1016.23 1015.77 1015.60 1015.91 1016.71 1017.35 1017.37 1016.15 1015.53 1015.17 1014.46 1014.22 1014.33 1014.27 1013.81 1014.30 1011.85 1012.13 1011.15 1011.12 1011.36 1011.67 1012.05 1012.14 1012.03 1011.92
1021.81 1022.07 1021.51 1020.86 1019.82 1019.03 1018.29 1017.56 1016.88 1016.19 1015.85 1016.02 1016.46 1016.69 1016.98 1017.62 1018.18 1018.09 1017.85 1017.57 1017.13 1016.39 1016.56 1017.36 1017.27 1017.40 1015.39 1015.93 1015.21 1013.88 1013.53 1012.91 1012.61 1012.43 1012.30 1011.90 1010.34 1011.23 1011.47 1011.80 1012.26 1012.39 1012.28 1011.96 1011.43
1022.73 1022.42 1022.40 1021.50 1020.71 1019.87 1019.52 1018.66 1018.01 1017.37 1016.74 1016.69 1016.86 1016.96 1017.33 1017.89 1017.98 1017.76 1017.63 1017.39 1016.89 1016.87 1017.09 1018.08 1018.18 1018.47 1015.48 1016.02 1015.05 1013.53 1012.85 1011.86 1011.38 1011.38 1011.36 1011.12 1010.99 1011.42 1011.90 1012.12 1011.88 1011.51 1011.39 1010.66 1010.22
Wind_Speed
17 15 14 13 11 10 10 9 8 8 7 7 7 7 8 10 12 3 3 6 5 1 3 5 3 3 1 4 2 2 4 4 5 1 1 6 7 10 3 5 4 5 6 5 2
17 16 15 14 13 12 10 10 10 8 7 6 6 6 8 9 2 4 8 6 5 1 2 4 4 5 2 3 2 5 4 8 6 1 3 3 4 4 6 9 6 8 8 6 7
18 16 16 16 17 14 12 10 9 8 6 5 5 7 7 6 2 4 7 8 6 3 1 2 5 2 5 1 4 4 6 6 7 5 4 2 0 1 3 4 3 4 9 6 4
18 17 16 15 15 16 13 10 8 7 5 4 6 7 7 2 4 3 8 9 5 3 3 4 3 1 2 4 2 3 8 7 5 1 3 3 2 3 3 7 6 7 6 4 4
19 18 17 16 15 14 13 11 8 5 4 5 6 5 2 2 5 4 7 7 3 4 5 4 3 1 0 2 6 3 4 4 3 4 3 2 3 3 5 9 6 7 8 7 3
21 19 18 16 16 15 11 9 8 5 3 4 4 4 0 2 4 7 8 3 6 2 4 3 3 2 0 3 1 3 3 6 5 8 4 3 4 1 7 8 8 6 6 8 5
22 21 19 18 16 15 13 9 7 5 1 3 4 3 2 7 4 7 4 4 4 1 2 1 3 5 2 7 3 4 7 9 9 6 6 5 6 6 10 5 8 7 6 7 9
24 22 21 19 17 16 15 12 9 6 4 4 2 2 3 3 1 4 3 2 5 4 2 2 3 1 2 4 8 6 6 5 9 7 6 10 8 10 11 4 8 8 8 8 9
24 24 22 20 19 18 16 14 10 7 6 7 1 1 6 3 1 3 1 0 4 2 4 4 2 0 6 4 6 7 2 3 9 4 1 4 8 10 10 6 10 9 9 8 8
24 24 23 21 19 19 22 7 3 3 5 4 4 2 4 3 3 1 2 2 2 4 7 2 4 3 4 5 3 3 2 4 5 7 3 4 7 7 7 5 9 8 9 9 9
25 24 23 21 18 15 11 5 7 5 2 5 3 4 2 2 2 1 4 3 2 2 2 3 3 5 7 6 6 3 3 4 5 6 6 7 8 10 9 7 9 9 9 7 2
26 24 23 20 17 12 2 2 5 5 6 6 8 2 2 3 0 1 4 4 3 3 2 6 6 9 8 3 1 2 3 6 5 6 6 8 17 9 7 7 6 10 12 7 2
25 23 22 20 18 2 3 7 5 4 2 7 5 3 3 3 1 2 2 2 2 3 6 5 6 1 4 7 6 5 4 4 5 7 7 7 11 7 13 7 16 15 13 10 8
25 22 20 22 3 3 4 4 3 5 5 2 3 3 1 4 2 3 3 2 4 3 7 3 6 2 4 5 4 3 4 5 6 6 2 5 8 6 6 7 13 11 10 9 10
26 21 18 7 2 2 4 7 5 7 4 5 3 2 2 5 5 4 3 2 3 3 5 7 5 4 3 4 3 6 4 5 4 5 2 5 2 8 4 5 2 6 7 10 8
27 20 14 3 0 7 8 4 6 6 2 3 3 2 1 3 3 4 3 1 1 2 4 8 5 3 4 2 4 1 5 7 5 5 1 4 6 6 1 3 1 5 8 8 7
27 20 6 3 4 5 6 6 6 4 1 0 2 1 1 3 4 2 1 2 2 5 6 8 6 4 6 3 5 9 7 5 7 5 6 5 5 9 2 2 4 5 7 7 6
29 18 4 4 5 7 5 6 8 3 4 4 4 7 3 3 0 2 2 3 4 4 3 3 5 5 11 3 5 2 7 6 4 4 6 5 7 7 6 6 5 6 6 3 4
22 4 4 6 4 4 7 6 2 3 4 7 8 7 7 7 5 6 5 2 3 2 6 3 6 9 3 6 4 2 2 5 3 2 2 4 2 4 5 2 5 5 1 5 3
3 4 4 3 4 6 6 1 3 3 3 5 5 6 6 5 5 4 4 5 4 2 4 3 4 5 6 4 4 5 2 4 4 2 5 5 4 6 7 2 4 4 4 6 6
3 4 6 3 6 6 3 1 3 2 4 4 4 4 5 4 4 5 3 4 5 2 3 2 5 7 4 4 5 4 4 2 1 5 7 4 7 6 7 7 7 7 8 6 6
3 4 5 4 6 2 2 6 5 2 6 6 4 5 4 5 4 3 4 2 1 1 2 2 4 4 9 17 10 8 9 5 6 8 4 4 9 6 11 10 7 5 4 5 4
3 3 6 7 4 4 7 5 3 4 3 3 5 3 0 2 3 2 3 2 2 2 2 4 2 5 10 8 5 6 1 3 3 1 6 5 9 7 13 18 16 3 3 5 6
3 5 7 6 1 2 6 5 6 8 9 6 4 6 6 5 4 5 4 4 8 4 7 4 5 9 13 11 5 11 11 13 5 3 8 13 18 16 15 13 2 4 2 3 6
5 1 1 5 5 6 2 3 4 6 3 4 5 7 3 2 5 3 5 7 8 8 2 2 5 6 15 16 14 18 18 18 20 18 9 25 20 21 7 2 3 1 5 8 12
4 4 5 4 4 6 7 5 8 5 3 5 3 3 1 2 3 5 4 3 6 5 2 1 10 4 22 12 15 21 20 24 21 20 17 17 23 3 3 3 4 7 7 10 11
4 4 4 5 6 4 4 5 4 4 4 4 3 3 3 2 5 9 9 8 13 13 15 4 3 3 24 11 13 16 14 20 20 18 15 15 12 2 4 7 9 8 8 12 12
Wind_Direction
8 4 359 352 340 325 315 306 300 299 303 314 326 326 319 315 308 130 249 217 180 231 302 295 293 279 47 256 238 100 72 234 245 284 289 322 23 333 293 50 9 352 48 329 330
6 3 356 350 342 330 320 312 305 300 307 315 324 315 312 332 326 250 247 201 212 225 358 9 305 1 295 225 272 120 144 221 206 229 302 301 40 324 14 350 348 358 357 26 43
5 1 355 346 340 334 328 318 302 299 299 305 305 296 310 331 348 242 191 222 220 168 162 295 271 227 184 169 232 194 208 221 264 253 219 215 68 291 53 341 270 299 308 329 40
6 0 352 345 338 336 336 331 317 306 291 267 271 292 315 212 160 247 194 217 204 174 312 310 339 258 220 221 273 251 243 216 236 295 295 215 185 315 205 237 248 272 255 297 16
359 359 352 342 338 338 337 337 332 308 276 264 274 300 223 26 260 240 219 237 215 179 225 183 317 53 47 288 321 194 318 281 298 327 294 311 291 250 256 268 276 285 315 264 235
351 355 351 346 338 335 333 330 336 337 285 267 275 307 109 56 226 210 214 309 241 211 335 122 205 235 295 289 76 287 271 311 279 285 235 232 274 105 257 274 297 284 272 271 303
346 348 350 344 340 334 326 319 313 321 280 257 276 264 75 219 227 213 178 224 255 195 1 11 85 68 342 322 275 290 354 343 311 289 257 104 328 247 258 305 287 289 270 228 223
343 343 347 344 339 334 322 307 290 265 215 201 255 261 256 289 118 172 209 10 334 304 212 214 42 72 186 280 359 12 42 12 288 322 324 121 253 270 270 285 253 251 251 259 255
342 339 342 342 338 333 318 300 270 238 180 146 146 162 295 306 77 246 129 335 314 307 303 245 64 291 6 59 9 3 221 237 313 327 129 168 247 258 303 312 285 286 283 271 263
341 338 337 339 339 335 321 278 153 248 174 180 261 10 299 188 215 49 259 193 278 338 345 60 60 27 7 81 210 248 330 299 287 279 14 253 253 277 271 250 253 263 269 263 268
342 337 334 334 335 344 351 11 17 353 59 206 222 230 121 208 135 18 285 331 292 101 224 306 90 226 230 192 197 179 212 255 267 320 360 335 306 307 288 301 306 296 289 299 287
338 337 332 327 327 334 342 78 206 198 314 270 247 205 199 156 43 217 55 50 18 245 11 8 229 239 207 75 36 6 12 329 293 344 23 323 299 285 292 298 286 286 286 198 88
336 334 330 324 318 87 154 237 296 108 78 295 215 160 211 103 227 212 85 14 259 310 310 179 246 185 78 40 50 10 89 336 292 335 350 357 330 356 321 343 22 48 51 41 64
334 333 331 324 24 337 248 271 315 104 64 269 221 236 225 170 308 167 147 135 346 336 332 276 326 53 82 82 97 21 308 322 317 10 266 72 284 304 305 22 44 60 62 48 39
334 334 334 304 238 354 285 299 36 57 71 192 185 153 169 151 155 242 196 113 232 280 65 264 304 348 26 157 128 232 297 288 258 237 88 330 108 264 356 59 69 88 76 76 61
334 336 338 73 346 245 306 352 48 49 123 165 151 201 141 215 212 164 191 37 346 337 310 244 275 244 152 198 87 284 12 338 13 111 109 209 187 283 272 275 360 341 67 56 45
333 329 324 326 249 329 330 46 52 90 346 34 252 36 177 133 170 166 333 60 103 30 360 330 1 49 40 50 3 59 47 344 0 9 212 252 12 244 312 48 137 64 52 51 38
330 321 211 220 263 5 43 54 64 29 10 355 322 297 210 173 100 278 73 127 25 76 88 12 326 11 335 228 199 214 146 156 256 231 253 288 237 241 200 208 168 132 118 83 40
323 340 318 265 244 85 67 55 156 39 347 346 333 55 21 7 21 34 358 128 133 140 121 59 275 315 53 337 130 266 267 188 178 270 13 237 311 355 211 252 139 139 67 355 351
3 351 278 261 117 65 71 301 69 52 4 20 36 41 33 349 39 29 338 18 126 93 103 195 298 267 310 341 276 147 218 0 358 269 265 279 238 237 223 153 182 213 231 263 310
35 38 260 136 61 48 91 253 98 127 94 69 25 350 2 18 18 345 325 353 48 96 111 151 150 281 8 245 214 331 328 320 205 155 196 251 242 216 204 208 220 243 240 255 300
20 45 310 52 47 28 13 293 319 97 31 34 56 42 29 355 347 347 326 225 11 11 291 265 170 264 240 266 270 245 256 153 130 280 230 189 254 246 276 294 283 241 259 282 53
47 275 315 72 71 342 309 324 345 37 61 60 17 56 353 295 5 281 270 337 150 294 229 204 301 337 337 348 19 87 327 177 208 159 209 225 261 317 322 312 299 253 333 25 341
58 10 334 31 84 67 8 312 341 2 52 23 33 33 21 352 21 306 307 315 4 5 278 157 183 188 252 236 223 280 262 281 221 174 268 249 285 285 290 298 358 77 357 324 308
29 350 170 324 332 345 325 285 28 14 47 36 17 25 68 342 327 326 357 330 336 310 67 162 231 235 249 265 267 264 258 250 249 255 218 281 275 288 274 286 111 359 320 332 316
68 33 347 289 302 333 1 353 5 330 27 8 59 296 18 91 156 288 319 239 226 298 283 336 275 296 279 279 277 276 262 257 252 259 259 265 277 177 103 15 266 246 245 271 277
325 343 103 283 341 35 348 335 0 350 316 30 338 15 38 303 261 239 220 222 238 261 273 209 273 13 282 309 287 278 252 254 259 262 254 256 281 113 235 258 264 236 254 297 295